[[{"header":{"parameterUnit":"m.s-1","parameterCategory":1,"la1":30.2991,"la2":30.254,"lo1":-89.0895,"lo2":-89.0444,"dy":0.0017,"dx":0.0017,"nx":28,"ny":28,"refTime":"2024-07-12T09:00:00:Z","depth":0,"parameterNumber":2,"parameterNumberName":"U-component_of_WINDS"},"data":[0,0,0,0,0,0,0,0,0,0,0,0,0,0,0,0,0,0,0,0,0,0,0,0,0,0,0,0,0,0,0,0,0,0,0,0,0,0,0,0,0,0,0,0,0,0,0,0,0,0,0,0,0,0,0,0,0,0,1.7063,1.7064,0,1.7173,1.7175,1.7176,1.7147,1.7145,1.7143,1.7141,1.7256,1.726,1.7266,0,0,0,0,0,0,0,0,0,0,0,0,0,1.6828,1.6833,1.7063,1.7065,1.7066,1.7173,1.7175,1.7176,1.7147,1.7145,1.7142,1.714,1.7254,1.726,1.7266,0,0,0,0,0,0,0,0,0,0,0,0,0,1.6934,1.6834,1.7063,1.7064,1.7066,1.7173,1.7175,1.7177,1.7148,1.7145,1.7141,1.7138,1.7252,1.7259,1.7267,1.738,0,0,1.729,1.7294,0,0,0,0,0,0,0,0,1.6928,1.6942,1.7063,1.7064,1.7066,1.7143,1.7134,1.7245,1.7149,1.7117,1.714,1.7137,1.7221,1.7231,1.7259,1.7386,1.739,1.7291,1.7296,1.7299,1.7301,0,0,0,0,0,0,0,1.692,1.6937,1.7107,1.7065,1.7067,1.706,1.7071,1.7155,1.7186,1.7119,1.7117,1.7131,1.7221,1.7252,1.7261,1.7392,1.7291,1.7298,1.7302,1.7305,1.7615,1.7618,0,0,0,0,0,0,1.6912,1.6931,1.7103,1.711,1.6987,1.7067,1.7079,1.7122,1.7185,1.7191,1.7133,1.7129,1.724,1.7252,1.7265,1.74,1.7299,1.7306,1.731,1.7611,1.7616,1.762,0,0,0,0,0,0,1.6907,1.6927,1.7099,1.702,1.7042,1.7074,1.7122,1.7126,1.7156,1.7196,1.7201,1.7159,1.7238,1.7255,1.7351,1.7404,1.7309,1.7316,1.7607,1.7613,1.7618,1.7672,0,0,0,0,0,0,1.69,1.6926,1.6969,1.7022,1.7046,1.7183,1.7125,1.713,1.7169,1.7164,1.7221,1.7227,1.7237,1.734,1.7359,1.7413,1.7322,1.7602,1.761,1.7616,1.7666,1.7679,1.769,0,0,0,0,0,1.6892,1.6981,1.6971,1.6992,1.7101,1.7186,1.72,1.7208,1.7173,1.7217,1.7242,1.7225,1.7395,1.735,1.7371,1.7428,1.7599,1.7608,1.7615,1.766,1.7676,1.769,0,0,0,0,0,0,1.6935,1.6988,1.6978,1.7087,1.7132,1.7181,1.7236,1.7225,1.7282,1.7275,1.7284,1.7297,1.7395,1.7422,1.737,1.754,1.7492,1.7505,1.7519,1.7534,1.7546,1.7537,1.7329,0,0,0,0,0,1.6957,1.7021,1.7064,1.7156,1.7179,1.7204,1.7241,1.7244,1.7291,1.7311,1.7343,1.739,1.7454,1.7496,1.7557,1.767,1.7681,1.7719,1.7731,1.7741,1.7752,1.7811,1.7828,1.7646,1.7646,1.7646,0,0,1.7004,1.704,1.7081,1.7166,1.7201,1.7267,1.722,1.7293,1.7342,1.7322,1.7414,1.744,1.7493,1.7597,1.7645,1.7622,1.7804,1.7751,1.7759,1.7764,1.7821,1.7838,1.7854,1.7652,1.7651,1.765,0,0,1.7121,1.7157,1.7235,1.7271,1.7325,1.734,1.7359,1.741,1.7426,1.7518,1.7504,1.7563,1.7673,1.7711,1.7745,1.7875,1.7861,1.7895,1.7958,1.8015,1.803,1.8042,1.8087,1.8103,1.7906,1.7906,1.7906,0,1.7172,1.7271,1.7278,1.7351,1.7388,1.7372,1.7452,1.7487,1.7558,1.7584,1.7557,1.7693,1.7729,1.784,1.7872,1.7901,1.7922,1.7888,1.8027,1.804,1.8052,1.8095,1.8112,1.7909,1.7909,1.7909,1.7908,0,1.733,1.7399,1.7457,1.7524,1.7568,1.7644,1.7662,1.7706,1.7704,1.7722,1.7816,1.7857,1.7925,1.7952,1.7953,1.8064,1.8048,1.8025,1.7976,1.8073,1.8113,1.8129,1.7915,1.7913,1.7912,1.7911,0,0,1.7479,1.7547,1.7568,1.7598,1.7655,1.7708,1.7783,1.7849,1.7885,1.7935,1.7997,1.809,1.8068,1.8106,1.811,1.8161,1.8259,1.8131,1.8132,1.8152,1.8383,1.8399,1.8418,1.8251,1.8254,1.8257,1.8378,0,1.76,1.7731,1.7739,1.7858,1.792,1.7905,1.797,1.8012,1.8031,1.8087,1.8108,1.8173,1.814,1.8162,1.8212,1.8237,1.8306,1.8229,1.8308,1.8311,1.8294,1.844,1.8458,1.857,1.8394,1.8397,1.8399,0,1.7759,1.7812,1.7936,1.7983,1.8009,1.8068,1.8127,1.8181,1.8228,1.8238,1.828,1.8276,1.8353,1.8303,1.8408,1.8355,1.8388,1.8405,1.841,1.8417,1.836,1.8449,1.8606,1.8623,1.8424,1.8422,1.842,0,1.7852,1.7955,1.8042,1.8068,1.8125,1.8166,1.8191,1.8235,1.8273,1.8326,1.835,1.8412,1.8445,1.8492,1.8505,1.8468,1.8609,1.8561,1.8619,1.8619,1.8649,1.8647,1.8812,1.8673,1.8673,1.8672,1.8672,0,1.7986,1.8063,1.8084,1.8137,1.8222,1.823,1.8314,1.8337,1.8376,1.8433,1.8425,1.8479,1.8494,1.8551,1.8561,1.8646,1.8661,1.8671,1.8673,1.8671,1.867,1.8692,1.8684,1.8677,1.8676,1.8675,1.8674,0,1.8104,1.8122,1.8215,1.8261,1.8274,1.8334,1.8373,1.8424,1.8442,1.8515,1.8532,1.856,1.8626,1.8644,1.8724,1.8731,1.883,1.8825,1.8813,1.8813,1.8869,1.8863,1.9054,1.9079,1.8925,1.8926,1.8928,0,1.8188,1.8246,1.8297,1.8334,1.8361,1.8422,1.846,1.847,1.851,1.8567,1.8612,1.8677,1.8729,1.8836,1.8863,1.8924,1.892,1.8982,1.8929,1.8924,1.8918,1.8914,1.8919,1.8992,1.8994,1.8995,1.8996,0,1.8334,1.8339,1.8394,1.8452,1.8497,1.8544,1.8588,1.862,1.8636,1.8682,1.8748,1.8789,1.8869,1.8934,1.8995,1.9022,1.9012,1.9013,1.9029,1.9027,1.9017,1.9022,1.8839,1.9008,1.9007,1.9006,1.9006,1.9005,1.8436,1.8486,1.8529,1.859,1.8624,1.8665,1.8715,1.8738,1.8793,1.8859,1.8862,1.8934,1.8978,1.9059,1.9089,1.9146,1.9127,1.9151,1.9157,1.9163,1.9166,1.9009,1.9157,1.9157,1.9157,1.9156,1.9156,0,1.8579,1.8605,1.8662,1.8723,1.8771,1.8757,1.8805,1.8846,1.8909,1.8951,1.9002,1.9078,1.914,1.9172,1.9234,1.9273,1.927,1.9289,1.9285,1.9291,1.9181,1.9159,1.929,1.929,1.929,1.929,1.929,1.929,1.8659,1.8742,1.8752,1.8852,1.8878,1.8948,1.8976,1.9014,1.9047,1.9132,1.9183,1.9203,1.9241,1.9305,1.9361,1.9368,1.9391,1.9412,1.9417,1.9313,1.9299,1.9286,1.9266,1.9417,1.9417,1.9522,1.9523,1.9524]},{"header":{"parameterUnit":"m.s-1","parameterCategory":1,"la1":30.2991,"la2":30.254,"lo1":-89.0895,"lo2":-89.0444,"dy":0.0017,"dx":0.0017,"nx":28,"ny":28,"refTime":"2024-07-12T09:00:00:Z","depth":0,"parameterNumber":3,"parameterNumberName":"V-component_of_WINDS"},"data":[0,0,0,0,0,0,0,0,0,0,0,0,0,0,0,0,0,0,0,0,0,0,0,0,0,0,0,0,0,0,0,0,0,0,0,0,0,0,0,0,0,0,0,0,0,0,0,0,0,0,0,0,0,0,0,0,0,0,1.1685,1.1685,0,1.17,1.17,1.17,1.1634,1.1632,1.163,1.1628,1.1645,1.1648,1.165,0,0,0,0,0,0,0,0,0,0,0,0,0,1.1599,1.16,1.1685,1.1685,1.1685,1.17,1.17,1.17,1.1634,1.1632,1.1629,1.1627,1.1645,1.1647,1.165,0,0,0,0,0,0,0,0,0,0,0,0,0,1.1627,1.1601,1.1685,1.1654,1.1651,1.17,1.17,1.17,1.1635,1.1632,1.1629,1.1626,1.1644,1.1647,1.165,1.173,0,0,1.1661,1.1662,0,0,0,0,0,0,0,0,1.1626,1.163,1.1658,1.1656,1.1653,1.1662,1.1676,1.171,1.1635,1.1641,1.1628,1.1625,1.1653,1.1656,1.1665,1.1731,1.1731,1.1661,1.1663,1.1665,1.1666,0,0,0,0,0,0,0,1.1624,1.1629,1.1691,1.1659,1.1656,1.1639,1.164,1.1682,1.1664,1.164,1.1636,1.1638,1.1651,1.1662,1.1665,1.1732,1.1661,1.1664,1.1666,1.1667,1.1861,1.1864,0,0,0,0,0,0,1.1626,1.1628,1.169,1.1691,1.1632,1.1643,1.1644,1.1662,1.1663,1.166,1.1641,1.1635,1.1658,1.1661,1.1665,1.1758,1.1665,1.1668,1.167,1.1858,1.1862,1.1865,0,0,0,0,0,0,1.1624,1.1632,1.169,1.1658,1.1664,1.1648,1.1669,1.1664,1.1674,1.1663,1.1659,1.1655,1.1655,1.1661,1.1714,1.1758,1.1669,1.1672,1.1855,1.1859,1.1864,1.1944,0,0,0,0,0,0,1.1622,1.1632,1.1662,1.166,1.1666,1.1739,1.1671,1.1666,1.168,1.1673,1.1675,1.1673,1.1654,1.1709,1.1717,1.1761,1.1675,1.1851,1.1857,1.1862,1.1938,1.1951,1.1963,0,0,0,0,0,1.1619,1.1685,1.1664,1.1672,1.1704,1.1741,1.1745,1.1721,1.1684,1.1714,1.1706,1.1673,1.1751,1.1715,1.1724,1.1769,1.1848,1.1855,1.1862,1.1932,1.1948,1.1962,0,0,0,0,0,0,1.1695,1.1684,1.1661,1.1728,1.1736,1.173,1.1768,1.1739,1.1758,1.1751,1.172,1.1721,1.178,1.1779,1.1739,1.1845,1.1793,1.1802,1.1844,1.1859,1.1871,1.1871,1.1678,0,0,0,0,0,1.1719,1.175,1.1739,1.1799,1.1804,1.1785,1.18,1.1781,1.1788,1.1791,1.1787,1.1796,1.1822,1.184,1.1864,1.1936,1.1936,1.1971,1.1984,1.1994,1.2003,1.204,1.2056,1.1888,1.1888,1.1888,0,0,1.177,1.1768,1.179,1.1814,1.1818,1.185,1.1789,1.1826,1.185,1.1797,1.1847,1.1844,1.1851,1.1914,1.1942,1.1916,1.2048,1.2003,1.2011,1.2014,1.2049,1.2065,1.2079,1.1893,1.1892,1.1891,0,0,1.1879,1.1881,1.1931,1.1935,1.1941,1.1927,1.1939,1.1937,1.1933,1.1982,1.1943,1.197,1.2016,1.2023,1.2032,1.214,1.211,1.2149,1.2215,1.2252,1.2265,1.2276,1.2315,1.233,1.2157,1.2157,1.2158,0,1.1943,1.199,1.196,1.2,1.2011,1.1963,1.2013,1.2018,1.2032,1.2041,1.2011,1.2067,1.2068,1.2132,1.2158,1.2167,1.218,1.215,1.2265,1.2277,1.2287,1.2324,1.2338,1.2162,1.2162,1.2161,1.2161,0,1.2067,1.21,1.2139,1.2152,1.2168,1.2212,1.2189,1.2208,1.2186,1.2176,1.2226,1.2225,1.2248,1.2261,1.224,1.2321,1.2305,1.227,1.2218,1.2308,1.2342,1.2356,1.2169,1.2167,1.2166,1.2165,0,0,1.2228,1.2221,1.2236,1.2241,1.2242,1.2267,1.2308,1.2329,1.2346,1.2356,1.239,1.2429,1.2396,1.2407,1.2386,1.2419,1.2504,1.238,1.238,1.2404,1.2593,1.262,1.2636,1.2483,1.2486,1.2488,1.2592,0,1.2335,1.2406,1.2379,1.2451,1.2481,1.2434,1.247,1.2475,1.2465,1.2489,1.2478,1.2506,1.2461,1.2467,1.2497,1.2488,1.2542,1.2479,1.2515,1.2517,1.2517,1.2654,1.2683,1.2782,1.2605,1.2608,1.2609,0,1.2471,1.2485,1.256,1.2554,1.2566,1.2599,1.2614,1.2637,1.2641,1.2632,1.2642,1.2614,1.2654,1.26,1.2654,1.2612,1.2625,1.2622,1.2625,1.2629,1.257,1.2663,1.2813,1.2828,1.263,1.2628,1.2627,0,1.2581,1.2619,1.2668,1.2673,1.2668,1.2692,1.2691,1.2691,1.2705,1.2718,1.2726,1.2744,1.2755,1.2769,1.2746,1.2709,1.2804,1.2748,1.2798,1.2799,1.2822,1.2821,1.2978,1.2828,1.2828,1.2828,1.2827,0,1.2705,1.2753,1.2717,1.2748,1.28,1.2768,1.282,1.2814,1.2814,1.2843,1.2803,1.283,1.2797,1.2822,1.2804,1.2852,1.2856,1.285,1.2845,1.2855,1.2856,1.2864,1.2857,1.2831,1.2831,1.283,1.2829,0,1.2838,1.2816,1.2867,1.2856,1.2855,1.2894,1.2884,1.2912,1.2898,1.2935,1.2942,1.2921,1.2947,1.2925,1.2951,1.2938,1.3002,1.2986,1.3001,1.2997,1.3048,1.3044,1.3217,1.3238,1.3074,1.3075,1.3077,0,1.292,1.2955,1.2948,1.2963,1.2964,1.299,1.3003,1.2971,1.2986,1.2991,1.3019,1.3041,1.3058,1.3102,1.3089,1.3109,1.3094,1.3153,1.3097,1.3105,1.3096,1.3095,1.3098,1.3165,1.3167,1.3169,1.317,0,1.3067,1.3053,1.3072,1.3088,1.3104,1.3114,1.3122,1.3137,1.3105,1.3124,1.3149,1.3162,1.3187,1.321,1.3225,1.3223,1.3192,1.3187,1.32,1.3211,1.3218,1.3215,1.3033,1.3184,1.3183,1.3182,1.3181,1.318,1.3177,1.3206,1.3204,1.3227,1.3228,1.3236,1.3261,1.325,1.327,1.3288,1.3268,1.3299,1.33,1.3316,1.3318,1.3342,1.3318,1.3336,1.3341,1.3346,1.3354,1.3213,1.3344,1.3344,1.3344,1.3343,1.3343,0,1.3322,1.3318,1.3339,1.335,1.3367,1.3333,1.3339,1.3357,1.3384,1.3387,1.3403,1.3432,1.3454,1.3442,1.346,1.3482,1.3468,1.3488,1.3487,1.3487,1.3374,1.3362,1.3499,1.3499,1.3499,1.3499,1.3499,1.3499,1.34,1.3447,1.3433,1.3479,1.3475,1.3504,1.3511,1.3517,1.3519,1.3553,1.357,1.3561,1.3558,1.3575,1.3593,1.3589,1.3598,1.3624,1.3614,1.351,1.3495,1.348,1.3468,1.3625,1.3626,1.3725,1.3726,1.3727]}]]